Powrót do katalogu

OPS 4682 DEB

AktywnyPO
NORAD 29061·DEBRIS·🇺🇸 United States

Wystrzelony Apr 3, 1965 z Vandenberg Space Force Base

Loading…

Następne Przeloty (najbliższe 24 godziny)

TLE

ŚwieżeSource: Space-Track

Epoka: Sep 13, 2026, 01:30 UTC

1 29061U 65027BL  26256.06256191  .00000346  00000-0  12134-2 0  9995
2 29061  90.2596  19.6471 0030194 349.8550  63.1112 12.94709268239770

Śledź OPS 4682 DEB w czasie rzeczywistym z AllMySat

Download on the App Store